DW4554 Weather Reports


Display with metric or nautical units.
time (UTC)temp
F
wind
direction
speed
MPH
gust
MPH
rain 1hr
in
rain 24hr
in
rain mn
in
humidity
%
barometer
mb
20260503221904 58 50 1.0 3.0 0.00 0.00 0.00 49 1014.6
20260503221404 58 70 1.0 3.0 0.00 0.00 0.00 49 1014.6
20260503220904 58 97 2.0 6.0 0.00 0.00 0.00 49 1014.5
20260503220404 58 78 1.0 5.0 0.00 0.00 0.00 49 1014.6
20260503215905 58 24 2.0 5.0 0.00 0.00 0.00 50 1014.6
20260503215404 58 65 2.0 5.0 0.00 0.00 0.00 50 1014.6
20260503214904 57 56 1.0 5.0 0.00 0.00 0.00 50 1014.6
20260503214404 57 129 1.0 6.0 0.00 0.00 0.00 50 1014.6
20260503213404 57 92 1.0 5.0 0.00 0.00 0.00 51 1014.7
20260503212904 57 55 2.0 6.0 0.00 0.00 0.00 51 1014.7
20260503211904 57 100 2.0 7.0 0.00 0.00 0.00 51 1014.7
20260503211404 57 75 1.0 3.0 0.00 0.00 0.00 51 1014.7
20260503210908 57 83 1.0 3.0 0.00 0.00 0.00 52 1014.7
20260503205904 57 71 1.0 3.0 0.00 0.00 0.00 52 1014.8
20260503204904 57 69 1.0 3.0 0.00 0.00 0.00 52 1014.9
20260503204404 57 67 1.0 2.0 0.00 0.00 0.00 52 1014.9
20260503203904 58 64 1.0 2.0 0.00 0.00 0.00 52 1014.9
20260503203404 58 63 0.0 2.0 0.00 0.00 0.00 52 1014.9
20260503202904 58 63 1.0 3.0 0.00 0.00 0.00 51 1015.0
20260503202405 58 59 2.0 3.0 0.00 0.00 0.00 51 1014.9
20260503201904 58 85 2.0 3.0 0.00 0.00 0.00 50 1015.0
20260503201404 58 96 1.0 2.0 0.00 0.00 0.00 50 1015.0
20260503200904 59 96 1.0 2.0 0.00 0.00 0.00 50 1015.0
20260503200404 59 98 1.0 5.0 0.00 0.00 0.00 49 1015.0
20260503195905 59 90 1.0 2.0 0.00 0.00 0.00 49 1015.0
20260503195404 59 92 1.0 3.0 0.00 0.00 0.00 49 1015.0
20260503194904 59 54 2.0 3.0 0.00 0.00 0.00 49 1015.0
20260503194404 59 50 2.0 3.0 0.00 0.00 0.00 49 1015.0
20260503193904 60 51 1.0 3.0 0.00 0.00 0.00 49 1015.1
20260503193404 60 52 1.0 3.0 0.00 0.00 0.00 49 1015.1
20260503192904 60 50 2.0 3.0 0.00 0.00 0.00 48 1015.1
20260503191905 61 60 1.0 3.0 0.00 0.00 0.00 48 1015.0
20260503191404 62 59 2.0 3.0 0.00 0.00 0.00 47 1015.0
20260503190904 62 73 2.0 3.0 0.00 0.00 0.00 47 1014.9
20260503190404 63 84 2.0 3.0 0.00 0.00 0.00 47 1014.9
20260503185904 63 71 1.0 3.0 0.00 0.00 0.00 47 1014.9
20260503185404 64 147 2.0 3.0 0.00 0.00 0.00 46 1014.9
20260503184405 65 147 1.0 3.0 0.00 0.00 0.00 43 1014.9
20260503183904 66 147 1.0 2.0 0.00 0.00 0.00 42 1014.8
20260503183405 66 147 0.0 2.0 0.00 0.00 0.00 40 1014.8
20260503182904 67 147 1.0 2.0 0.00 0.00 0.00 39 1014.7
20260503182404 67 147 1.0 3.0 0.00 0.00 0.00 38 1014.6
20260503181904 67 147 1.0 3.0 0.00 0.00 0.00 37 1014.6
20260503181404 68 147 1.0 3.0 0.00 0.00 0.00 37 1014.5
20260503180905 68 147 1.0 3.0 0.00 0.00 0.00 37 1014.5
20260503175904 69 157 1.0 3.0 0.00 0.00 0.00 36 1014.5
20260503175405 69 161 1.0 5.0 0.00 0.00 0.00 35 1014.4
20260503174904 69 138 1.0 7.0 0.00 0.00 0.00 35 1014.4
20260503174405 69 177 1.0 5.0 0.00 0.00 0.00 35 1014.4
20260503173404 70 164 1.0 5.0 0.00 0.00 0.00 34 1014.4
20260503172404 70 150 3.0 7.0 0.00 0.00 0.00 33 1014.3
20260503171904 71 156 1.0 7.0 0.00 0.00 0.00 33 1014.4
20260503171404 71 183 3.0 6.0 0.00 0.00 0.00 32 1014.3
20260503170904 71 197 3.0 9.0 0.00 0.00 0.00 32 1014.3
20260503170405 71 198 3.0 7.0 0.00 0.00 0.00 31 1014.3
20260503150904 78 176 4.0 8.0 0.00 0.00 0.00 30 1014.4
20260503150405 78 169 5.0 10.0 0.00 0.00 0.00 31 1014.6
20260503131404 78 194 9.0 15.0 0.00 0.00 0.00 32 1015.8
20260503130904 78 210 4.0 9.0 0.00 0.00 0.00 33 1015.8
20260503110405 73 142 2.0 6.0 0.00 0.00 0.00 38 1016.9
20260503090405 70 191 2.0 9.0 0.00 0.00 0.00 40 1017.9
20260503081405 68 136 1.0 6.0 0.00 0.00 0.00 42 1018.1
20260503080904 68 158 2.0 5.0 0.00 0.00 0.00 44 1018.0
20260503080404 67 174 2.0 8.0 0.00 0.00 0.00 43 1018.1
20260503072904 66 178 5.0 10.0 0.00 0.00 0.00 44 1018.1
20260503072404 66 185 4.0 9.0 0.00 0.00 0.00 45 1018.1
20260503071904 65 160 1.0 5.0 0.00 0.00 0.00 46 1018.0
20260503071405 65 37 1.0 5.0 0.00 0.00 0.00 47 1017.9
20260503070904 65 140 1.0 3.0 0.00 0.00 0.00 47 1018.0
20260503070404 64 134 1.0 7.0 0.00 0.00 0.00 48 1018.0
20260503054904 53 59 2.0 5.0 0.00 0.00 0.00 70 1017.9
20260503054404 52 50 3.0 5.0 0.00 0.00 0.00 72 1017.8
20260503053904 51 82 3.0 5.0 0.00 0.00 0.00 75 1017.9
20260503053404 51 49 2.0 3.0 0.00 0.00 0.00 77 1017.9
20260503052904 50 50 2.0 3.0 0.00 0.00 0.00 78 1017.9
20260503052404 50 29 2.0 3.0 0.00 0.00 0.00 79 1017.9
20260503051904 49 60 1.0 3.0 0.00 0.00 0.00 79 1017.9
20260503051404 49 60 2.0 3.0 0.00 0.00 0.00 80 1017.9
20260503050905 49 60 2.0 3.0 0.00 0.00 0.00 80 1017.9
20260503050404 48 60 2.0 3.0 0.00 0.00 0.00 81 1018.0
20260503045904 48 60 2.0 3.0 0.00 0.00 0.00 81 1018.0
20260503043404 47 60 2.0 3.0 0.00 0.00 0.00 81 1017.9
20260503042904 47 60 2.0 3.0 0.00 0.00 0.00 81 1017.8
20260503042405 47 60 1.0 3.0 0.00 0.00 0.00 81 1017.8
20260503041904 46 60 2.0 3.0 0.00 0.00 0.00 80 1017.8
20260503041405 46 60 2.0 3.0 0.00 0.00 0.00 80 1017.8
20260503040904 46 60 1.0 3.0 0.00 0.00 0.00 80 1017.7
20260503040405 46 60 2.0 3.0 0.00 0.00 0.00 80 1017.7
20260503035905 46 60 2.0 3.0 0.00 0.00 0.00 79 1017.7
20260503035404 46 60 1.0 3.0 0.00 0.00 0.00 79 1017.8
20260503034905 46 60 0.0 1.0 0.00 0.00 0.00 79 1017.8
20260503034404 46 60 1.0 2.0 0.00 0.00 0.00 80 1017.7
20260503033904 46 60 1.0 3.0 0.00 0.00 0.00 80 1017.8
20260503033404 46 60 1.0 3.0 0.00 0.00 0.00 80 1017.7
20260503032904 46 60 1.0 3.0 0.00 0.00 0.00 80 1017.6
20260503032404 46 60 2.0 3.0 0.00 0.00 0.00 80 1017.6
20260503031404 46 60 2.0 3.0 0.00 0.00 0.00 80 1017.5
20260503030904 46 60 2.0 3.0 0.00 0.00 0.00 80 1017.5
20260503030404 46 60 2.0 3.0 0.00 0.00 0.00 80 1017.5
20260503025905 46 60 2.0 3.0 0.00 0.00 0.00 80 1017.5
20260503025404 46 60 2.0 3.0 0.00 0.00 0.00 81 1017.5
20260503024904 46 60 2.0 3.0 0.00 0.00 0.00 81 1017.5
20260503024404 46 59 2.0 3.0 0.00 0.00 0.00 80 1017.5
20260503023904 46 59 3.0 3.0 0.00 0.00 0.00 80 1017.6
20260503023404 46 59 2.0 3.0 0.00 0.00 0.00 80 1017.5
20260503022905 45 59 2.0 3.0 0.00 0.00 0.00 80 1017.6
20260503022404 45 57 2.0 5.0 0.00 0.00 0.00 80 1017.5
20260503021904 45 56 1.0 3.0 0.00 0.00 0.00 80 1017.5
20260503021404 45 56 2.0 3.0 0.00 0.00 0.00 79 1017.5
20260503020404 45 56 2.0 3.0 0.00 0.00 0.00 79 1017.5
20260503015905 45 56 2.0 3.0 0.00 0.00 0.00 79 1017.6
20260503014904 45 56 2.0 3.0 0.00 0.00 0.00 78 1017.7
20260503014404 45 56 2.0 3.0 0.00 0.00 0.00 78 1017.7
20260503013904 45 56 2.0 3.0 0.00 0.00 0.00 78 1017.7
20260503013404 45 56 2.0 3.0 0.00 0.00 0.00 77 1017.6
20260503012404 45 56 2.0 3.0 0.00 0.00 0.00 77 1017.6
20260503010904 45 56 0.0 2.0 0.00 0.00 0.00 76 1017.5
20260503010417 45 56 0.0 3.0 0.00 0.00 0.00 76 1017.5
20260503005904 45 56 1.0 3.0 0.00 0.00 0.00 76 1017.5
20260503004904 46 55 3.0 3.0 0.00 0.00 0.00 75 1017.5
20260503003905 46 52 1.0 2.0 0.00 0.00 0.00 74 1017.5
20260503002905 47 52 2.0 3.0 0.00 0.00 0.00 74 1017.5
20260503002404 47 52 0.0 0.0 0.00 0.00 0.00 73 1017.5
20260503001904 47 52 0.0 0.0 0.00 0.00 0.00 72 1017.4
20260503001404 47 52 0.0 0.0 0.00 0.00 0.00 72 1017.4
20260503000904 47 52 0.0 0.0 0.00 0.00 0.00 71 1017.4
20260503000404 47 52 0.0 0.0 0.00 0.00 0.00 71 1017.4
20260502235904 48 52 0.0 0.0 0.00 0.00 0.00 71 1017.3
20260502235404 48 52 1.0 2.0 0.00 0.00 0.00 70 1017.3
20260502234904 48 52 0.0 1.0 0.00 0.00 0.00 70 1017.3
20260502234405 48 52 0.0 0.0 0.00 0.00 0.00 69 1017.3
20260502233904 48 52 0.0 1.0 0.00 0.00 0.00 69 1017.4
20260502233405 49 52 1.0 2.0 0.00 0.00 0.00 68 1017.4
20260502232904 49 52 2.0 2.0 0.00 0.00 0.00 68 1017.4
20260502232405 49 52 1.0 2.0 0.00 0.00 0.00 68 1017.4
20260502231904 49 52 2.0 3.0 0.00 0.00 0.00 67 1017.3
20260502231405 50 52 0.0 0.0 0.00 0.00 0.00 67 1017.5
20260502230904 50 52 0.0 12.0 0.00 0.00 0.00 66 1017.5
20260502230404 50 52 1.0 1.0 0.00 0.00 0.00 66 1017.4
20260502225904 50 52 0.0 0.0 0.00 0.00 0.00 65 1017.5
20260502225404 51 52 0.0 1.0 0.00 0.00 0.00 65 1017.4
20260502224904 51 52 1.0 2.0 0.00 0.00 0.00 65 1017.5
20260502223904 52 52 0.0 0.0 0.00 0.00 0.00 64 1017.6
20260502223404 52 52 0.0 1.0 0.00 0.00 0.00 64 1017.6
20260502222905 52 52 0.0 2.0 0.00 0.00 0.00 62 1017.7
20260502222404 52 52 1.0 2.0 0.00 0.00 0.00 62 1017.6